COSMOS 249 DEB, 6764

Orbit data source: Space-Track

COSMOS 249 DEB, 6764 is space debris in LEO originally from a launch on Sun, 20 Oct 1968 UTC launched from the Tyuratam Missile And Space Complex (TTMTR). Debris objects in space refer to the collection of defunct objects orbiting the Earth. Examples of debris include non-operational satellites, rocket bodies, and fragments generated from explosions, collisions, or faulty payload assembly.

Loading next visibility...
Identifier
6764, 1968-091CK
Orbit
LEO
Country
Flag of CISCIS
Related business
Manufacturer
Unknown
Mission
Spacecraft
Bus & Motor
Unknown
Mass
Unknown
Launch date (UTC)
1968-10-20 (57 years ago)
Launch vehicle
Unknown
Launch site
Tyuratam Missile And Space Complex (TTMTR)
Object type
Payload
Rocket body
Debris
Shape & HBR
Unknown shape, 0.1 m
Radar Cross Section
Small (<0.1 m²)

Expand to show TLE details & history
Last TLE update: 1 day ago

TLE from 1 day ago
0 COSMOS 249 DEB
1 06764U 68091CK  25285.89803981 -.00000025  00000-0  13773-3 0  9997
2 06764  62.3547 247.9785 0750462 310.6591  70.4203 12.38091329694556
Epoch: 2025-10-12T21:33Z
TLE epoch observation values (Epoch: 2025-10-12T21:33:10.639Z)
Latitude
25.84057°
Longitude
-82.40452°
Altitude
1,358.925 km
Speed
7.253 km/s
True Right ascension
17h 30m 23s
True Declination
25° 42' 59"
Sunlit
Object was in daylight at epoch
Visualization orbit readout
Latitude
Unknown
Longitude
Unknown
Altitude
Unknown
Speed
Unknown
Apparent Right ascension
Unknown
Apparent Declination
Unknown
Sunlit
N/A
Visualization observer readout
Local Sidereal Time
01:26:15
Azimuth
Unknown
Elevation
Unknown
Doppler factor
Unknown
Orbital elements
Apogee altitude
2,105.966 km
Perigee altitude
921.46 km
Semi-major axis
7,891.85 km
Eccentricity
0.07505
Inclination
62.3547°
RAAN
247.9785°
Arg. of periapsis
310.6591°
True anomaly
78.75571°
Mean anomaly
70.4203°
Eccentric anomaly
74.56505°
Mean motion
3.09581 °/min
Orbital period
116.29 mins
BSTAR
0.00013773
Loading maneuver chart data...
Computing Atmospheric mass density...
Loading historical data...
Loading historical data...
Loading historical data...
Loading historical data...
Loading historical data...
Loading historical data...
Loading historical data...

Documentation

Showing up to 5 results
|